Le nostre stazioni meteo in Italia

Pubblicità
Il mio iltempo24.it
Torino/Caselle, Italia (16059): Temperatura & dewpoint: 20.08.2019 12:00:00 - 26.08.2019 12:00:00 (CEST)Torino/Caselle, Italia (16059): velocità del vento: 20.08.2019 12:00:00 - 26.08.2019 12:00:00 (CEST)Torino/Caselle, Italia (16059): direzione del vento: 20.08.2019 12:00:00 - 26.08.2019 12:00:00 (CEST)Torino/Caselle, Italia (16059): reduced air pressure: 20.08.2019 12:00:00 - 26.08.2019 12:00:00 (CEST)Torino/Caselle, Italia (16059): visibility: 20.08.2019 12:00:00 - 26.08.2019 12:00:00 (CEST)Torino/Caselle, Italia (16059): precipitazioni: 20.08.2019 12:00:00 - 26.08.2019 12:00:00 (CEST)
Data & Tempo tt [°C] td [°C] ff [km/h] ff [kn] dd ppp [hPa] vv [km] rr [mm]
26.08.2019 12:00:00 27,0 18,0 5 3 - - 10 -
26.08.2019 11:00:00 26,3 18,8 5 3 - 1020,2 10 0,0
26.08.2019 10:00:00 25,0 17,0 9 5 E - 10 -
26.08.2019 09:00:00 23,0 17,0 5 3 O - 10 -
26.08.2019 08:00:00 21,3 17,6 8 4 N 1019,8 10 -
26.08.2019 07:00:00 20,0 17,0 5 3 NO - 10 -
26.08.2019 06:00:00 21,0 18,0 4 2 NNO - 10 -
26.08.2019 05:00:00 20,9 17,9 5 3 O 1019,3 10 0,0
26.08.2019 04:00:00 21,0 18,0 8 4 OSO - 10 -
26.08.2019 03:00:00 21,0 18,0 5 3 O - 10 -
26.08.2019 02:00:00 22,7 18,0 5 3 NNO 1019,9 10 -
26.08.2019 01:00:00 24,0 18,0 11 6 ONO - 10 -
26.08.2019 00:00:00 24,0 19,0 9 5 N - 10 -
25.08.2019 23:00:00 23,4 19,2 11 6 N 1019,7 10 0,0
25.08.2019 22:00:00 25,0 20,0 8 4 NNE - 10 -
25.08.2019 21:00:00 26,0 19,0 4 2 - - 10 -
25.08.2019 20:00:00 26,9 19,3 8 4 ENE 1017,7 10 -
25.08.2019 19:00:00 29,0 17,0 5 3 E - 10 -
25.08.2019 18:00:00 30,0 17,0 9 5 SE - 10 -
25.08.2019 17:00:00 29,8 16,7 8 4 SSE 1017,6 10 0,0
25.08.2019 16:00:00 30,0 18,0 4 2 - - 10 -
25.08.2019 15:00:00 29,0 17,0 5 3 SSE - 10 -
25.08.2019 14:00:00 27,8 17,1 8 4 E 1019,2 10 -
25.08.2019 13:00:00 27,0 17,0 4 2 - - 10 -
25.08.2019 12:00:00 26,0 18,0 8 4 ENE - 10 -
25.08.2019 11:00:00 25,0 17,5 4 2 - 1020,2 10 0,0
25.08.2019 10:00:00 23,0 18,0 8 4 ESE - 10 -
25.08.2019 09:00:00 - - - - - - - -
25.08.2019 08:00:00 20,6 17,0 9 5 O 1020,0 10 -
25.08.2019 07:00:00 21,0 17,0 4 2 NNO - 10 -
25.08.2019 06:00:00 19,0 17,0 8 4 N - 10 -
25.08.2019 05:00:00 19,2 17,3 8 4 N 1019,3 10 0,0
25.08.2019 04:00:00 21,0 17,0 5 3 NO - 10 -
25.08.2019 03:00:00 22,0 18,0 8 4 O - 10 -
25.08.2019 02:00:00 22,5 18,6 4 2 - 1019,8 10 -
25.08.2019 01:00:00 22,0 19,0 4 2 - - 10 -
25.08.2019 00:00:00 23,0 18,0 5 3 NO - 10 -
24.08.2019 23:00:00 22,7 18,0 9 5 NNO 1019,4 10 0,0
24.08.2019 22:00:00 23,0 18,0 8 4 N - 10 -
24.08.2019 21:00:00 25,0 17,0 4 2 NNE - 10 -
24.08.2019 20:00:00 26,2 17,0 5 3 ENE 1018,3 10 -
24.08.2019 19:00:00 28,0 16,0 9 5 ENE - 10 -
24.08.2019 18:00:00 29,0 16,0 8 4 ENE - 10 -
24.08.2019 17:00:00 28,2 16,7 8 4 - 1019,2 10 0,0
24.08.2019 16:00:00 29,0 16,0 9 5 E - 10 -
24.08.2019 15:00:00 28,0 16,0 8 4 SSE - 10 -
24.08.2019 14:00:00 27,9 16,2 8 4 E 1020,9 10 -
24.08.2019 13:00:00 27,0 17,0 5 3 - - 10 -
24.08.2019 12:00:00 26,0 17,0 5 3 SE - 10 -
24.08.2019 11:00:00 25,1 17,7 4 2 - 1022,2 10 0,0
24.08.2019 10:00:00 23,0 17,0 5 3 SO - 10 -
24.08.2019 09:00:00 21,0 17,0 4 2 - - 10 -
24.08.2019 08:00:00 19,8 15,9 2 1 - 1022,0 10 -
24.08.2019 07:00:00 19,0 16,0 4 2 ONO - 10 -
24.08.2019 06:00:00 20,0 16,0 8 4 NO - 10 -
24.08.2019 05:00:00 19,9 16,2 8 4 NNO 1021,9 10 0,0
24.08.2019 04:00:00 19,0 17,0 8 4 N - 10 -
24.08.2019 03:00:00 19,0 17,0 5 3 E - 10 -
24.08.2019 02:00:00 19,9 18,3 2 1 - 1022,1 10 -
24.08.2019 01:00:00 22,0 18,0 4 2 - - 10 -
24.08.2019 00:00:00 22,0 18,0 9 5 ONO - 10 -
23.08.2019 23:00:00 22,0 18,0 8 4 NO 1022,3 10 0,0
23.08.2019 22:00:00 23,0 18,0 5 3 NNO - 10 -
23.08.2019 21:00:00 24,0 18,0 4 2 N - 10 -
23.08.2019 20:00:00 24,4 18,3 5 3 NNE 1022,0 10 -
23.08.2019 19:00:00 26,0 18,0 5 3 ENE - 10 -
23.08.2019 18:00:00 27,0 19,0 5 3 NNO - 10 -
23.08.2019 17:00:00 25,6 18,0 8 4 - 1022,3 10 0,0
23.08.2019 16:00:00 26,0 19,0 9 5 NE - 10 -
23.08.2019 15:00:00 24,0 18,0 9 5 ENE - 10 -
23.08.2019 14:00:00 22,6 19,3 13 7 E 1023,4 10 -
23.08.2019 13:00:00 24,0 18,0 15 8 ESE - 10 -
23.08.2019 12:00:00 24,0 17,0 8 4 ENE - 10 -
23.08.2019 11:00:00 23,2 16,9 8 4 ENE 1023,8 10 0,0
23.08.2019 10:00:00 23,0 16,0 9 5 N - 10 -
23.08.2019 09:00:00 20,0 16,0 4 2 - - 10 -
23.08.2019 08:00:00 18,9 15,8 2 1 - 1022,4 10 -
23.08.2019 07:00:00 16,0 15,0 4 2 - - 10 -
23.08.2019 06:00:00 18,0 16,0 4 2 O - 10 -
23.08.2019 05:00:00 18,0 15,7 5 3 O 1021,8 10 0,0
23.08.2019 04:00:00 18,0 16,0 5 3 O - 10 -
23.08.2019 03:00:00 19,0 16,0 8 4 ONO - 10 -
23.08.2019 02:00:00 18,9 16,9 4 2 O 1022,4 10 -
23.08.2019 01:00:00 20,0 18,0 4 2 - - 10 -
23.08.2019 00:00:00 20,0 17,0 5 3 N - 10 -
22.08.2019 23:00:00 21,1 18,1 5 3 ONO 1022,2 10 0,0
22.08.2019 22:00:00 23,0 18,0 5 3 SO - 10 -
22.08.2019 21:00:00 23,0 17,0 4 2 SO - 10 -
22.08.2019 20:00:00 24,3 17,2 5 3 OSO 1021,1 10 -
22.08.2019 19:00:00 25,0 17,0 4 2 - - 10 -
22.08.2019 18:00:00 25,0 15,0 8 4 SO - 10 -
22.08.2019 17:00:00 24,4 17,8 8 4 O 1022,0 10 0,0
22.08.2019 16:00:00 23,0 19,0 9 5 OSO - 10 -
22.08.2019 15:00:00 23,0 19,0 8 4 SSE - 10 -
22.08.2019 14:00:00 22,0 20,0 9 5 SE - 10 -
22.08.2019 13:00:00 22,0 20,0 8 4 O - 10 -
22.08.2019 12:00:00 20,0 20,0 13 7 SO - 10 -
22.08.2019 11:00:00 20,3 19,2 9 5 SO 1024,4 6 0,0
22.08.2019 10:00:00 21,0 18,0 4 2 - - 6 -
22.08.2019 09:00:00 21,0 19,0 4 2 - - 10 -
22.08.2019 08:00:00 21,0 18,6 8 4 NO 1022,9 10 -
22.08.2019 07:00:00 20,0 18,0 9 5 NE - 10 -
22.08.2019 06:00:00 22,0 18,0 13 7 NE - 10 -
22.08.2019 05:00:00 21,9 18,4 15 8 N 1021,9 10 0,0
22.08.2019 04:00:00 22,0 18,0 16 9 NNE - 10 -
22.08.2019 03:00:00 22,0 18,0 4 2 - - 10 -
22.08.2019 02:00:00 22,0 17,9 2 1 - 1020,5 10 -
22.08.2019 01:00:00 - - - - - - - -
22.08.2019 00:00:00 25,0 17,0 13 7 NO - 10 -
21.08.2019 23:00:00 24,9 17,5 9 5 NNO 1020,2 10 0,0
21.08.2019 22:00:00 25,0 18,0 9 5 NO - 10 -
21.08.2019 21:00:00 26,0 19,0 5 3 NNO - 10 -
21.08.2019 20:00:00 27,0 17,0 5 3 ENE - 10 -
21.08.2019 19:00:00 28,0 19,0 5 3 ENE - 10 -
21.08.2019 18:00:00 29,0 16,0 5 3 NE - 10 -
21.08.2019 17:00:00 28,9 16,4 9 5 NNE 1019,0 10 0,0
21.08.2019 16:00:00 29,0 16,0 5 3 - - 10 -
21.08.2019 15:00:00 29,0 16,0 11 6 SE - 10 -
21.08.2019 14:00:00 28,6 16,5 5 3 - 1019,9 10 -
21.08.2019 13:00:00 28,0 17,0 8 4 SE - 10 -
21.08.2019 12:00:00 27,0 17,0 8 4 S - 10 -
21.08.2019 11:00:00 25,4 18,5 8 4 SSO 1020,6 10 0,0
21.08.2019 10:00:00 24,0 18,0 4 2 - - 10 -
21.08.2019 09:00:00 22,0 18,0 4 2 SSO - 10 -
21.08.2019 08:00:00 21,0 18,0 4 2 - - 10 -
21.08.2019 07:00:00 20,0 18,0 2 1 - - 10 -
21.08.2019 06:00:00 20,0 18,0 5 3 ONO - 10 -
21.08.2019 05:00:00 19,8 18,2 5 3 O 1018,9 10 0,0
21.08.2019 04:00:00 20,0 19,0 4 2 OSO - 10 -
21.08.2019 03:00:00 20,0 19,0 2 1 - - 10 -
21.08.2019 02:00:00 20,4 19,4 2 1 - 1018,7 10 -
21.08.2019 01:00:00 21,0 20,0 5 3 SSE - 10 -
21.08.2019 00:00:00 22,0 20,0 4 2 - - 10 -
20.08.2019 23:00:00 22,6 19,5 8 4 NNO 1019,0 10 0,0
20.08.2019 22:00:00 22,0 20,0 4 2 - - 10 -
20.08.2019 21:00:00 22,0 19,0 9 5 NE - 10 -
20.08.2019 20:00:00 24,0 19,0 8 4 NNE - 10 -
20.08.2019 19:00:00 24,0 19,0 15 8 N - 10 -
20.08.2019 18:00:00 26,0 19,0 9 5 N - 10 -
20.08.2019 17:00:00 - - - - - - - -
20.08.2019 16:00:00 26,0 18,0 13 7 E - 10 -
20.08.2019 15:00:00 26,0 19,0 8 4 NE - 10 -
20.08.2019 14:00:00 25,0 20,0 9 5 ENE - 10 -
20.08.2019 13:00:00 25,0 19,0 8 4 NNE - 10 -
20.08.2019 12:00:00 24,0 20,0 8 4 ENE - 10 -

tt = Temperatura
td = dewpoint
ff = velocità del vento
dd = direzione del vento
ppp = reduced air pressure
vv = visibility
rr = precipitazioni

Stazioni seguenti

WeatherPro
AMSI
MeteoEarth